Temperature
19 19 19 19 19 19 19 19 19 19 19 18 18 19 19 18 18 18 18 18 18 18 18 18 18 18 17 17 17 17 17 17 17 17 16 16 16 16 16 16 16 16 16
19 19 19 19 19 19 19 19 18 19 19 18 18 18 18 18 18 18 18 18 18 18 18 17 17 17 17 17 17 17 17 17 17 16 16 16 16 16 16 16 16 16 16
19 19 19 18 18 18 18 18 18 19 18 18 18 18 18 18 18 18 18 18 18 18 18 17 17 17 17 17 17 17 17 17 17 16 16 16 16 16 16 16 16 16 15
19 19 19 19 19 18 19 19 19 18 18 18 18 18 18 18 18 18 18 18 18 18 18 17 17 17 17 17 17 17 17 17 17 16 16 16 16 16 16 16 16 15 15
19 19 19 19 19 19 18 18 18 18 18 18 18 18 18 18 18 18 18 18 18 18 18 17 17 17 17 17 17 17 17 17 16 16 16 16 16 16 16 16 16 15 15
19 19 19 19 19 19 19 19 18 18 18 18 18 18 18 18 18 18 18 18 18 18 18 17 17 17 17 17 17 17 17 16 16 16 16 16 16 16 16 16 16 15 15
19 19 19 19 19 19 19 19 19 19 18 18 18 18 18 18 18 18 18 18 18 18 18 18 17 17 17 17 17 17 17 17 16 16 16 16 16 16 16 16 16 15 15
19 19 19 19 19 19 19 19 19 19 19 18 18 18 18 18 19 18 18 18 18 18 18 18 18 18 17 17 17 17 17 16 16 16 16 16 16 16 16 16 16 15 15
19 19 19 19 19 19 19 19 19 19 19 19 19 18 18 18 18 18 18 18 18 18 18 18 18 18 17 17 17 17 17 16 16 16 16 16 16 16 16 16 15 15 15
19 19 19 19 19 19 19 19 19 19 19 19 19 19 19 18 18 18 18 18 18 18 18 18 18 17 17 17 17 17 17 17 16 16 16 16 16 16 16 16 15 15 15
19 19 19 19 19 19 19 19 19 19 19 19 19 19 19 19 18 18 18 18 18 18 18 18 18 17 17 17 17 17 17 17 16 16 16 16 16 16 16 16 15 15 15
19 19 19 19 19 19 19 19 19 19 19 19 19 19 19 18 18 18 18 18 18 18 18 18 18 17 17 17 17 17 17 17 16 16 16 16 16 16 16 15 15 15 15
19 19 19 19 19 19 19 19 19 19 19 19 19 19 19 18 18 18 18 18 18 18 18 18 18 17 17 17 17 17 17 16 16 16 16 16 16 16 15 15 15 15 15
19 19 19 19 19 19 19 19 19 19 19 19 19 19 19 18 18 18 18 18 17 18 18 18 18 17 17 17 17 17 16 16 16 16 16 16 16 15 15 15 15 15 15
20 19 19 19 19 19 19 19 19 19 19 19 19 19 18 18 18 18 18 18 18 17 17 18 17 17 17 17 17 16 16 16 16 16 16 16 15 15 15 15 15 15 15
20 19 19 19 19 19 19 19 19 19 19 19 19 18 18 18 18 18 18 18 18 17 17 17 17 17 17 17 16 16 16 16 16 16 16 15 15 15 15 15 15 15 14
20 20 19 19 19 19 19 19 19 19 19 19 19 18 18 18 18 18 18 17 17 17 17 17 17 17 16 16 16 16 16 16 16 16 15 15 15 15 15 15 14 14 14
20 20 19 19 19 19 19 19 19 19 19 19 19 18 18 18 18 18 17 17 17 17 17 17 16 16 16 16 16 16 16 15 15 15 15 15 15 15 15 14 14 14 14
20 19 19 19 19 19 19 19 19 19 19 18 18 18 18 18 18 17 17 17 17 17 16 16 16 16 16 16 15 15 15 15 15 15 15 15 15 15 15 14 14 14 14
19 19 19 19 19 19 19 19 19 19 18 18 18 18 18 18 17 17 17 17 17 16 16 16 16 16 15 15 15 15 15 15 15 15 15 14 14 14 14 14 14 14 14
19 19 19 19 19 19 19 18 18 18 18 18 18 18 17 17 17 17 16 16 16 16 16 16 16 15 15 15 15 15 15 15 15 14 14 14 14 14 14 14 14 14 14
19 19 19 19 19 19 18 18 18 18 18 18 17 17 17 17 17 16 16 16 16 16 15 15 15 15 15 15 15 14 14 14 14 14 14 14 14 14 14 14 14 14 13
19 19 18 18 18 18 18 18 18 18 17 17 17 17 17 17 16 16 16 16 15 15 15 15 15 15 15 15 14 14 14 14 14 14 14 14 14 14 14 14 13 13 13
19 19 18 18 18 18 18 18 17 17 17 17 17 16 16 16 16 16 16 15 15 15 15 15 15 15 14 14 14 14 14 13 13 13 13 13 13 13 13 13 13 13 13
18 18 18 18 18 18 18 17 17 17 17 17 16 16 16 16 16 15 15 15 15 15 15 15 14 14 14 14 14 13 13 13 13 13 13 12 13 13 13 13 13 13 13
18 18 17 17 17 17 17 17 17 16 16 16 16 16 16 15 15 15 15 15 15 15 14 14 14 14 14 13 13 13 13 13 12 12 12 12 12 12 12 13 13 12 12
Wind_Speed
4 4 3 3 3 3 3 3 3 2 2 3 4 5 5 6 7 8 9 12 12 13 13 12 11 11 11 10 9 9 10 10 10 10 10 11 11 12 12 12 11 11 11
5 4 3 2 2 3 3 3 3 3 2 2 3 4 5 6 7 8 9 11 12 13 13 12 12 11 11 11 10 9 9 9 10 11 11 11 11 12 12 13 12 12 11
6 4 3 2 2 3 4 3 3 2 2 2 2 2 3 5 6 8 8 9 10 12 13 12 12 12 11 11 10 10 10 10 10 11 11 11 11 12 12 13 13 13 12
7 5 3 2 2 3 3 2 2 2 2 2 2 2 2 3 5 7 8 9 9 10 12 13 12 12 12 11 10 10 10 10 11 11 12 12 12 11 12 12 13 13 13
8 5 3 3 3 2 2 2 2 2 2 1 1 2 2 2 3 6 6 9 10 10 10 12 13 13 12 11 11 10 10 10 10 11 12 13 13 12 13 13 13 14 14
7 5 3 3 3 3 2 2 2 2 2 2 1 0 1 2 3 4 6 7 9 10 11 10 10 11 13 12 12 11 11 11 11 11 11 12 13 13 14 13 13 13 13
6 5 3 3 3 3 3 3 2 2 1 2 2 1 2 2 3 4 4 4 6 8 10 10 10 10 9 12 13 12 11 10 10 11 12 12 13 13 13 14 14 13 12
6 5 4 4 4 3 3 3 3 2 1 2 3 1 2 3 3 2 2 4 4 4 6 9 10 10 9 8 10 12 11 10 10 10 9 10 11 11 12 12 13 13 13
6 5 5 4 4 4 4 4 4 4 2 1 2 3 2 3 2 3 2 2 3 3 4 5 8 10 10 9 9 10 12 11 10 9 9 9 9 9 11 11 12 13 13
4 5 5 4 4 4 4 4 4 3 4 2 1 1 3 3 2 2 3 2 2 4 4 5 5 8 9 9 10 10 10 10 10 10 9 9 10 10 10 10 11 11 12
3 4 5 4 3 3 4 4 3 4 3 3 2 1 1 1 2 2 2 3 2 3 4 4 4 5 8 9 9 11 11 11 11 10 10 9 9 10 10 10 10 10 10
2 3 4 3 3 4 4 4 4 4 4 3 3 2 2 2 2 2 3 3 3 3 3 3 4 4 6 7 9 10 11 11 11 10 10 10 10 9 10 10 10 10 10
2 3 4 4 3 3 4 3 3 3 3 3 3 3 3 3 3 3 2 2 2 2 2 2 3 4 5 6 7 9 10 11 11 10 10 9 9 9 9 10 10 10 10
4 4 4 4 4 4 4 3 2 3 2 3 3 3 2 2 2 3 3 2 1 2 2 3 2 3 4 5 7 8 7 10 10 10 10 9 8 9 9 9 9 9 9
4 4 4 4 4 4 3 3 2 2 2 3 3 2 2 2 2 3 3 4 3 2 3 3 2 2 3 5 7 7 6 8 9 9 10 10 9 9 9 9 9 9 9
4 3 3 3 3 3 3 3 2 2 2 2 2 2 2 2 2 2 2 2 3 4 3 3 3 3 3 3 6 6 6 7 8 8 9 9 9 9 9 10 9 9 9
4 4 4 4 3 3 3 3 2 2 2 2 1 1 2 2 1 1 1 1 2 2 3 3 2 1 1 2 2 4 5 5 6 9 10 10 9 10 10 10 10 10 10
4 4 4 4 4 4 3 4 4 3 2 2 2 1 2 2 2 1 1 1 1 2 3 3 2 1 2 3 3 3 3 4 6 8 10 10 10 11 10 10 10 10 11
5 5 4 5 5 5 4 4 4 4 3 3 3 3 3 3 2 2 2 2 2 2 2 2 2 1 1 1 1 2 2 2 4 6 8 9 9 10 10 11 10 11 11
5 5 5 5 5 4 3 3 3 3 3 3 3 3 4 4 4 4 3 3 2 2 1 2 2 1 1 1 1 1 2 2 3 3 4 5 6 8 9 11 11 11 12
6 5 5 4 4 4 4 4 4 4 3 3 3 3 3 3 4 4 3 3 3 2 2 2 2 1 1 1 2 2 2 2 2 2 1 2 2 3 5 8 10 12 12
4 4 5 5 4 3 4 5 5 4 3 3 3 3 3 2 3 3 4 5 5 4 4 3 3 3 4 3 3 2 2 1 3 2 1 3 2 3 4 5 9 11 12
4 4 4 4 3 3 4 4 5 4 4 4 4 3 3 2 2 2 3 4 4 5 7 6 5 6 5 5 4 3 3 3 4 3 2 3 2 4 4 6 9 11 12
4 4 3 4 3 2 3 4 4 4 3 3 3 3 3 3 3 2 2 2 3 4 5 5 5 6 6 5 6 5 5 3 2 2 2 3 3 4 4 4 8 10 11
3 3 3 3 3 2 2 3 3 2 2 2 3 2 3 3 3 2 2 3 4 5 5 5 6 6 6 6 5 2 2 2 2 3 2 2 3 3 3 4 6 9 11
4 3 3 3 4 3 2 2 3 2 2 2 1 1 2 2 2 1 2 3 4 5 4 4 3 4 3 4 5 5 5 4 2 3 3 3 2 1 2 3 3 4 6
Wind_Direction
142 148 162 167 173 174 170 168 168 163 168 169 166 154 151 158 167 170 181 185 186 187 188 193 196 196 196 196 200 205 209 211 211 210 212 212 212 211 209 206 204 205 207
149 147 151 157 175 183 178 167 159 161 165 154 155 157 159 168 174 177 182 189 194 194 196 199 201 200 200 202 206 208 211 214 216 217 217 217 217 218 217 214 209 208 213
150 148 147 154 171 172 157 139 129 131 140 140 143 168 168 173 179 183 184 189 195 201 204 204 205 206 208 210 213 216 219 221 222 220 218 218 219 221 220 219 216 213 212
157 151 149 161 159 135 130 126 125 117 127 139 163 189 183 178 182 182 186 192 195 200 206 208 210 211 215 218 219 221 223 226 227 225 223 221 222 222 221 220 220 215 212
161 157 160 164 152 128 132 153 130 135 144 160 189 203 202 200 196 189 193 201 201 201 205 212 215 216 218 221 222 225 228 228 229 228 228 227 227 226 223 222 220 216 215
164 161 165 168 159 143 148 145 141 131 159 187 189 238 256 232 212 203 203 201 203 205 206 211 212 219 223 225 227 231 235 234 233 233 233 233 232 230 226 224 221 218 216
167 162 160 158 161 165 176 168 148 136 159 146 100 5 328 286 237 223 210 203 206 204 200 204 208 211 221 227 231 234 239 238 235 235 236 237 235 232 228 225 221 216 215
172 171 166 173 178 170 171 166 151 146 191 160 142 113 350 335 312 244 223 212 213 196 201 207 205 207 213 219 226 232 235 238 236 236 236 235 232 228 223 221 217 216 217
178 177 177 181 182 178 187 191 172 161 186 225 171 153 161 234 294 314 271 227 205 205 211 203 207 208 211 217 223 231 235 238 237 236 236 234 228 226 225 224 220 219 218
183 183 177 178 177 173 185 199 182 172 165 196 246 216 192 180 179 297 315 289 233 214 213 212 207 212 214 214 217 222 228 231 234 238 240 239 235 230 228 225 225 224 222
190 184 178 176 182 184 189 189 181 179 174 179 198 216 210 204 167 176 267 294 296 246 222 210 205 210 212 213 213 219 221 224 226 231 234 238 238 233 228 226 225 225 223
203 201 190 188 195 192 193 190 186 183 188 187 195 191 186 195 210 190 226 254 265 267 238 220 215 212 212 211 215 218 215 218 222 229 236 241 242 236 229 226 226 225 227
200 214 205 201 201 200 196 184 178 189 189 190 202 207 204 208 194 181 189 239 259 275 271 253 229 211 214 206 212 217 216 215 221 227 233 238 242 237 227 222 221 223 226
206 202 200 204 201 196 196 185 186 200 189 199 215 212 211 217 192 185 186 184 251 293 278 260 257 220 214 203 211 207 213 215 221 226 230 233 237 231 226 223 223 225 225
203 199 201 201 200 193 190 175 188 205 191 202 214 215 219 231 211 206 190 176 178 229 262 255 256 246 216 207 208 202 212 218 223 228 231 233 230 226 223 224 225 226 226
200 186 188 186 181 181 179 174 194 203 191 217 211 219 245 250 237 223 205 198 185 188 229 248 238 247 224 213 209 205 218 224 225 230 233 232 229 224 223 225 225 225 225
193 189 186 183 182 183 183 179 192 184 196 235 232 213 248 250 248 257 223 203 199 182 226 266 257 254 212 217 202 214 226 223 231 234 233 230 228 227 228 226 225 226 225
197 190 184 185 189 192 188 186 202 206 200 220 229 216 256 247 243 242 220 229 225 201 200 245 268 259 237 214 201 212 219 227 231 240 239 235 232 231 231 229 227 228 224
194 189 184 190 197 198 193 194 196 207 208 212 207 206 227 216 231 230 213 225 238 231 196 203 244 254 269 225 203 248 251 255 246 245 243 241 238 236 233 231 230 228 224
194 195 195 200 199 196 197 200 198 202 208 216 215 216 223 215 223 227 227 226 214 205 198 197 229 252 265 256 160 243 279 281 269 258 250 243 240 242 239 234 232 229 225
193 191 193 200 197 197 210 204 205 207 208 220 232 231 234 230 230 230 234 222 207 207 203 205 227 230 245 209 226 229 239 272 280 255 263 251 233 240 239 238 234 231 226
188 184 193 196 197 212 210 199 195 204 201 208 227 238 241 252 254 252 244 227 207 206 212 213 222 222 235 226 223 212 207 237 282 265 220 265 225 247 246 232 232 227 225
187 189 197 190 196 208 203 198 194 191 201 215 219 225 241 255 247 256 261 254 243 232 218 208 216 228 225 220 207 211 212 215 236 243 193 255 246 250 251 247 233 227 226
183 188 190 186 187 214 199 194 190 191 200 209 213 209 213 242 250 243 249 269 271 263 244 225 224 235 229 219 205 206 214 229 262 253 183 235 251 247 255 243 238 226 225
170 170 170 167 168 200 187 175 174 184 206 229 224 208 215 233 256 248 242 270 284 287 268 243 240 240 242 231 204 179 191 193 266 270 219 210 245 254 257 254 243 231 226
173 163 162 174 174 188 191 172 173 171 189 236 256 241 224 230 253 244 237 250 268 278 287 283 269 266 256 248 223 200 197 201 222 257 232 202 229 217 276 264 242 235 230
Height
1534 1535 1537 1538 1539 1541 1542 1543 1544 1545 1546 1547 1548 1548 1549 1550 1550 1551 1551 1552 1552 1552 1552 1552 1552 1552 1553 1553 1553 1553 1553 1553 1554 1554 1554 1555 1555 1556 1557 1557 1558 1559 1560
1535 1536 1538 1539 1540 1541 1542 1543 1545 1545 1547 1547 1548 1549 1549 1550 1550 1551 1551 1551 1552 1552 1552 1552 1552 1552 1552 1552 1552 1552 1552 1552 1552 1552 1553 1553 1554 1554 1555 1556 1556 1557 1558
1536 1537 1539 1540 1541 1542 1543 1544 1545 1546 1547 1548 1548 1549 1549 1550 1550 1550 1550 1550 1551 1551 1551 1551 1551 1551 1551 1551 1550 1550 1550 1550 1550 1551 1551 1551 1552 1552 1553 1553 1554 1555 1556
1537 1538 1539 1540 1541 1542 1543 1544 1545 1546 1546 1547 1548 1549 1549 1549 1549 1550 1550 1550 1550 1550 1550 1550 1549 1549 1549 1549 1549 1549 1548 1548 1548 1548 1549 1549 1549 1550 1550 1550 1551 1552 1553
1537 1538 1539 1540 1541 1542 1543 1544 1545 1545 1546 1547 1548 1548 1548 1548 1548 1548 1548 1549 1549 1549 1549 1548 1548 1548 1548 1547 1547 1547 1546 1546 1546 1546 1546 1546 1547 1547 1547 1548 1549 1550 1551
1537 1538 1539 1540 1541 1542 1543 1543 1544 1545 1546 1546 1547 1547 1547 1547 1547 1547 1547 1547 1547 1547 1547 1547 1547 1546 1546 1546 1545 1545 1544 1544 1544 1543 1543 1543 1543 1544 1544 1545 1546 1547 1548
1537 1538 1539 1540 1541 1541 1542 1543 1543 1544 1545 1545 1546 1546 1546 1546 1546 1546 1546 1546 1546 1546 1545 1545 1545 1545 1544 1544 1544 1543 1542 1542 1541 1541 1540 1540 1540 1541 1541 1542 1543 1544 1545
1536 1537 1538 1539 1540 1541 1541 1542 1543 1543 1544 1545 1545 1545 1545 1546 1544 1545 1544 1544 1544 1544 1544 1543 1543 1543 1543 1542 1542 1541 1540 1540 1539 1538 1538 1537 1537 1537 1538 1539 1540 1541 1542
1536 1537 1538 1539 1539 1540 1541 1541 1542 1543 1543 1544 1544 1545 1544 1543 1543 1543 1543 1543 1543 1543 1542 1542 1542 1541 1541 1540 1540 1539 1538 1538 1537 1536 1536 1535 1535 1535 1536 1536 1537 1538 1538
1535 1536 1537 1538 1539 1540 1540 1541 1541 1542 1542 1543 1543 1543 1543 1543 1542 1542 1542 1541 1541 1541 1540 1540 1540 1539 1539 1538 1537 1537 1536 1535 1535 1534 1533 1533 1533 1533 1533 1533 1534 1535 1535
1534 1535 1536 1537 1538 1539 1539 1540 1540 1541 1541 1542 1542 1542 1542 1542 1541 1540 1539 1540 1540 1539 1539 1539 1538 1537 1537 1536 1535 1534 1534 1533 1532 1532 1531 1531 1530 1530 1530 1530 1531 1532 1532
1533 1534 1535 1536 1537 1537 1538 1539 1539 1540 1540 1540 1540 1540 1540 1540 1539 1539 1538 1537 1537 1537 1537 1536 1536 1535 1534 1534 1533 1532 1532 1531 1530 1530 1529 1528 1528 1527 1527 1527 1528 1529 1529
1532 1533 1534 1534 1535 1536 1537 1537 1538 1538 1538 1538 1539 1539 1538 1538 1538 1537 1536 1535 1535 1534 1534 1534 1533 1533 1532 1532 1531 1531 1530 1529 1528 1527 1527 1526 1525 1525 1524 1525 1525 1526 1526
1531 1532 1532 1533 1534 1535 1535 1536 1536 1536 1537 1537 1537 1537 1536 1536 1536 1535 1534 1534 1533 1532 1532 1531 1531 1530 1530 1529 1529 1528 1528 1527 1526 1525 1524 1524 1523 1522 1522 1522 1522 1523 1523
1529 1530 1531 1531 1532 1533 1533 1534 1534 1535 1535 1535 1534 1534 1534 1534 1534 1533 1533 1532 1532 1530 1529 1528 1528 1528 1527 1527 1526 1526 1525 1525 1524 1523 1522 1521 1521 1520 1520 1520 1519 1520 1520
1527 1528 1529 1530 1530 1531 1531 1532 1532 1532 1532 1532 1532 1532 1532 1532 1532 1531 1530 1530 1529 1528 1527 1526 1525 1525 1525 1524 1524 1523 1523 1522 1521 1520 1520 1519 1518 1518 1517 1517 1517 1517 1517
1525 1526 1526 1527 1528 1529 1529 1530 1530 1530 1530 1530 1530 1530 1529 1530 1529 1528 1528 1527 1526 1526 1524 1523 1523 1522 1522 1521 1521 1520 1520 1519 1519 1518 1517 1516 1516 1515 1515 1514 1514 1514 1514
1522 1523 1524 1525 1526 1526 1527 1527 1527 1527 1527 1527 1527 1527 1527 1527 1526 1525 1524 1524 1523 1523 1522 1520 1520 1519 1518 1518 1517 1517 1517 1516 1516 1515 1514 1514 1513 1513 1512 1511 1511 1511 1511
1520 1521 1522 1522 1523 1524 1524 1525 1525 1525 1524 1524 1524 1524 1524 1523 1523 1522 1521 1520 1520 1519 1519 1518 1517 1516 1516 1515 1514 1514 1514 1513 1513 1512 1511 1511 1510 1510 1509 1509 1508 1508 1508
1517 1518 1519 1520 1521 1521 1521 1521 1521 1521 1521 1521 1521 1521 1520 1520 1519 1519 1518 1517 1516 1516 1515 1515 1514 1513 1512 1512 1511 1510 1510 1510 1509 1509 1508 1507 1507 1506 1506 1506 1505 1505 1504
1515 1516 1516 1517 1518 1518 1518 1518 1518 1518 1518 1518 1517 1517 1517 1517 1517 1516 1515 1514 1513 1512 1511 1511 1510 1509 1509 1508 1508 1507 1506 1506 1506 1505 1504 1504 1503 1503 1502 1502 1502 1501 1501
1512 1513 1513 1514 1514 1514 1515 1515 1515 1515 1515 1514 1514 1514 1514 1514 1513 1513 1512 1511 1510 1509 1508 1507 1506 1506 1505 1505 1504 1504 1503 1503 1501 1502 1501 1500 1500 1499 1499 1499 1498 1498 1497
1508 1509 1510 1511 1511 1511 1512 1512 1512 1512 1511 1511 1511 1511 1510 1510 1509 1509 1508 1507 1506 1505 1505 1504 1503 1502 1502 1501 1501 1500 1500 1499 1498 1498 1497 1496 1496 1495 1495 1495 1494 1494 1494
1504 1505 1506 1507 1507 1507 1508 1508 1508 1508 1508 1507 1508 1507 1507 1506 1506 1505 1504 1503 1502 1501 1501 1500 1499 1499 1498 1498 1498 1497 1496 1496 1495 1495 1494 1492 1491 1491 1491 1491 1490 1490 1490
1501 1502 1502 1503 1503 1503 1504 1504 1505 1504 1504 1504 1504 1504 1503 1502 1502 1501 1500 1499 1498 1497 1497 1497 1496 1495 1495 1494 1494 1493 1493 1492 1490 1490 1490 1488 1487 1487 1487 1486 1486 1486 1486
1498 1499 1499 1499 1500 1500 1500 1500 1501 1500 1500 1500 1500 1500 1499 1499 1498 1497 1497 1495 1494 1493 1493 1493 1492 1491 1491 1490 1490 1489 1489 1488 1486 1485 1485 1485 1483 1483 1482 1482 1482 1482 1482